Tracking 30692 objects as of 17-Jun-2025
HD Live streaming from Space Station
objects crossing your sky now

STARLINK-31248

Track STARLINK-31248 now!
10-day predictions
STARLINK-31248 is classified as:


NORAD ID: 58840
Int'l Code: 2024-017Q
Perigee: 481.5 km
Apogee: 483.3 km
Inclination: 53.2 °
Period: 94.1 minutes
Semi major axis: 6853 km
RCS: Unknown
Launch date: January 24, 2024
Source: United States (US)
Launch site: AIR FORCE WESTERN TEST RANGE (AFWTR)
Your satellite tracking list
Your tracking list is empty




NASA's NSSDC Master Catalog

Two Line Element Set (TLE):
1 58840U 24017Q   25166.97452666  .00000711  00000-0  36151-4 0  9993
2 58840  53.1609  15.7523 0001296  91.6918 268.4231 15.30193698 79159
Source of the keplerian elements: AFSPC